Weather History for K8D3 - January, 2013

Change the Weather History Date:

Saturday, January 5, 2013

  Actual Average Record
Temperature  
Mean Temperature 14 °F 13 °F  
Max Temperature 23 °F 23 °F 59 °F (2012)
Min Temperature 4 °F 4 °F -24 °F (1937)
Degree Days  
Heating Degree Days 51 52  
Month to date heating degree days 244 260  
Since 1 July heating degree days 3619 3599  
Cooling Degree Days 0 0  
Month to date cooling degree days 0 0  
Year to date cooling degree days 0 0  
Moisture  
Dew Point 9 °F    
Average Humidity 83    
Maximum Humidity 92    
Minimum Humidity 73    
Precipitation  
Precipitation 0.01 in 0.01 in 0.48 in (1994)
Month to date precipitation 0.02 0.07  
Year to date precipitation 0.02 0.07  
Snow  
Snow 0.00 in - - ()
Month to date snowfall 0.2  
Since 1 July snowfall 9.2  
Snow Depth 5.00 in    
Sea Level Pressure  
Sea Level Pressure 30.09 in    
Wind  
Wind Speed 11 mph (NNW)    
Max Wind Speed 28 mph    
Max Gust Speed 31 mph    
T = Trace of Precipitation, MM = Missing Value Source: NWS Daily Summary

Daily Weather History Graph

Daily Weather History Graph

Search for Another Location

Airport or City:

Trip Planner

Search our weather history database for the weather conditions in past years. The results will help you decide how hot, cold, wet, or windy it might be!

Date:

Astronomy

Jan. 05, 2013 Rise Set
Actual Time 8:08 AM CST 4:58 PM CST
Civil Twilight 7:34 AM CST 5:32 PM CST
Nautical Twilight 6:57 AM CST 6:10 PM CST
Astronomical Twilight 6:21 AM CST 6:46 PM CST
Moon 1:05 AM CST (1/5) 11:58 AM CST (1/5)
Length of Visible Light 9h 58m
Length of Day
8h 50m
Last Quarter, 44% of the Moon is Illuminated
Jan 5
Last Quarter
Jan 11
New
Jan 18
First Quarter
Jan 26
Full
Feb 3
Last Quarter

Hourly Weather History & Observations

Time (CST) Temp. Windchill Dew Point Humidity Pressure Visibility Wind Dir Wind Speed Gust Speed Precip Events Conditions
12:56 AM 12.0 °F 2.7 °F 7.0 °F 80% 30.06 in - SSW 5.8 mph - N/A   Unknown
1:56 AM 17.1 °F 11.7 °F 10.9 °F 77% 30.04 in - Variable 3.5 mph - N/A   Unknown
2:56 AM 10.0 °F - 6.1 °F 84% 30.06 in - Calm Calm - N/A   Unknown
3:56 AM 10.9 °F - 6.1 °F 81% 30.04 in - Calm Calm - N/A   Unknown
4:56 AM 10.9 °F - 8.1 °F 88% 30.03 in - Calm Calm - N/A   Unknown
5:56 AM 8.1 °F - 3.9 °F 83% 30.01 in - Calm Calm - N/A   Unknown
6:56 AM 5.0 °F - 1.9 °F 87% 30.01 in - Calm Calm - N/A   Unknown
7:56 AM 3.9 °F - 1.0 °F 88% 30.02 in - Calm Calm - N/A   Unknown
8:56 AM 17.1 °F - 10.0 °F 74% 30.01 in - Calm Calm - N/A   Unknown
9:56 AM 16.0 °F 8.8 °F 9.0 °F 74% 30.02 in - NNE 4.6 mph - N/A   Unknown
10:56 AM 21.9 °F 10.4 °F 15.1 °F 75% 30.02 in - North 11.5 mph - N/A   Unknown
11:56 AM 19.9 °F 4.8 °F 14.0 °F 78% 30.02 in - North 18.4 mph - N/A   Unknown
12:56 PM 18.0 °F 0.2 °F 12.0 °F 78% 30.02 in - NNW 24.2 mph 28.8 mph N/A   Unknown
1:56 PM 16.0 °F -2.8 °F 10.9 °F 81% 30.03 in - NNW 25.3 mph - N/A   Unknown
2:56 PM 12.9 °F -6.5 °F 9.0 °F 84% 30.07 in - NNW 24.2 mph - N/A   Unknown
3:56 PM 14.0 °F -4.7 °F 10.9 °F 88% 30.10 in - NNW 23.0 mph 28.8 mph N/A   Unknown
4:56 PM 17.1 °F 0.1 °F 12.9 °F 84% 30.13 in - North 20.7 mph 28.8 mph 0.01 in   Unknown
5:56 PM 17.1 °F 1.5 °F 10.0 °F 74% 30.17 in - North 17.3 mph - N/A   Unknown
6:56 PM 16.0 °F -0.4 °F 10.0 °F 77% 30.19 in - NNW 18.4 mph - N/A   Unknown
7:56 PM 16.0 °F -2.1 °F 10.0 °F 77% 30.22 in - NNW 23.0 mph - N/A   Unknown
8:56 PM 15.1 °F -1.6 °F 9.0 °F 77% 30.22 in - NNW 18.4 mph - N/A   Unknown
9:56 PM 14.0 °F -0.8 °F 10.0 °F 84% 30.23 in - NNW 13.8 mph - N/A   Unknown
10:56 PM 15.1 °F 1.1 °F 12.0 °F 88% 30.22 in - NNW 12.7 mph - N/A   Unknown
11:56 PM 10.9 °F 4.7 °F 9.0 °F 92% 30.23 in - WNW 3.5 mph - N/A   Unknown